When you browse on this site, cookies collect data to enhance your experience and personalize the content and advertising you see.
Visit our Privacy Policy to learn more. By continuing to use the site, you agree to this use of cookies and data.
  • In Lithuania
  • List of Countries
  • For 7 days
  • Water Temperature
  • Satellite Maps
  • Weather Map
  • Weather Widgets
  • user-avatar
    Login

    Hourly Weather Soloneshnoe

    Today, 19 January, Saturday

    Time Temperature Precipitation Wind Pressure Humidity
    00:00 -9°C° 0 mm 2 mps 726 mmHg 65%
    01:00 -9°C° 0 mm 2 mps 725 mmHg 64%
    02:00 -9°C° 0 mm 2 mps 725 mmHg 64%
    03:00 -9°C° 0 mm 3 mps 725 mmHg 63%
    04:00 -9°C° 0 mm 3 mps 725 mmHg 63%
    05:00 -9°C° 0 mm 3 mps 725 mmHg 62%
    06:00 -9°C° 0 mm 3 mps 725 mmHg 62%
    07:00 -9°C° 0 mm 3 mps 725 mmHg 62%
    08:00 -8°C° 0 mm 3 mps 725 mmHg 62%
    09:00 -8°C° 0 mm 3 mps 725 mmHg 62%
    10:00 -6°C° 0 mm 3 mps 725 mmHg 65%
    11:00 -4°C° 0 mm 2 mps 725 mmHg 67%
    12:00 -2°C° 0 mm 2 mps 725 mmHg 69%
    13:00 -2°C° 0 mm 2 mps 725 mmHg 69%
    14:00 -1°C° 0 mm 2 mps 725 mmHg 69%
    15:00 -1°C° 0 mm 2 mps 725 mmHg 69%
    16:00 -2°C° 0 mm 2 mps 725 mmHg 68%
    17:00 -3°C° 0 mm 2 mps 725 mmHg 67%
    18:00 -4°C° 0 mm 2 mps 725 mmHg 65%
    19:00 -5°C° 0 mm 2 mps 725 mmHg 64%
    20:00 -5°C° 0 mm 2 mps 725 mmHg 62%
    21:00 -6°C° 0 mm 3 mps 725 mmHg 61%
    22:00 -6°C° 0 mm 3 mps 725 mmHg 60%
    23:00 -6°C° 0 mm 3 mps 725 mmHg 60%

    Tomorrow, 20 January, Sunday

    Time Temperature Precipitation Wind Pressure Humidity
    00:00 -6°C° 0 mm 3 mps 725 mmHg 59%
    01:00 -5°C° 0 mm 2 mps 725 mmHg 59%
    02:00 -6°C° 0 mm 2 mps 725 mmHg 59%
    03:00 -6°C° 0 mm 2 mps 725 mmHg 59%
    04:00 -6°C° 0 mm 2 mps 725 mmHg 59%
    05:00 -6°C° 0 mm 2 mps 725 mmHg 59%
    06:00 -6°C° 0 mm 2 mps 724 mmHg 59%
    07:00 -6°C° 0 mm 2 mps 724 mmHg 59%
    08:00 -6°C° 0 mm 2 mps 725 mmHg 59%
    09:00 -6°C° 0 mm 2 mps 725 mmHg 59%
    10:00 -4°C° 0 mm 2 mps 725 mmHg 62%
    11:00 -1°C° 0 mm 1 mps 724 mmHg 66%
    12:00 +1°C° 0 mm 1 mps 724 mmHg 70%
    13:00 +1°C° 0 mm 1 mps 724 mmHg 71%
    14:00 +1°C° 0 mm 1 mps 723 mmHg 73%
    15:00 -1°C° 0 mm 0 mps 723 mmHg 74%
    16:00 -1°C° 0 mm 1 mps 723 mmHg 72%
    17:00 -2°C° 0 mm 1 mps 723 mmHg 70%
    18:00 -3°C° 0 mm 1 mps 723 mmHg 68%
    19:00 -3°C° 0 mm 1 mps 722 mmHg 67%
    20:00 -3°C° 0 mm 1 mps 722 mmHg 66%
    21:00 -6°C° 0 mm 2 mps 722 mmHg 65%
    22:00 -6°C° 0 mm 2 mps 721 mmHg 65%
    23:00 -6°C° 0 mm 2 mps 721 mmHg 64%

    Day after tomorrow, 21 January, Monday

    Time Temperature Precipitation Wind Pressure Humidity
    00:00 -6°C° 0 mm 2 mps 721 mmHg 63%
    01:00 -6°C° 0 mm 2 mps 720 mmHg 62%
    02:00 -6°C° 0 mm 2 mps 720 mmHg 61%
    03:00 -6°C° 0 mm 2 mps 720 mmHg 60%
    04:00 -7°C° 0 mm 2 mps 720 mmHg 60%
    05:00 -7°C° 0 mm 2 mps 720 mmHg 60%
    06:00 -7°C° 0 mm 2 mps 720 mmHg 60%
    07:00 -6°C° 0 mm 2 mps 720 mmHg 60%
    08:00 -6°C° 0 mm 2 mps 720 mmHg 59%
    09:00 -6°C° 0 mm 2 mps 720 mmHg 59%
    10:00 -4°C° 0 mm 2 mps 720 mmHg 63%
    11:00 -2°C° 0 mm 2 mps 720 mmHg 66%
    12:00 -1°C° 0 mm 2 mps 720 mmHg 69%
    13:00 +1°C° 0 mm 1 mps 721 mmHg 70%
    14:00 +1°C° 0 mm 1 mps 721 mmHg 72%
    15:00 +1°C° 0 mm 1 mps 721 mmHg 74%
    16:00 +1°C° 0 mm 1 mps 721 mmHg 74%
    17:00 0°C° 0 mm 1 mps 722 mmHg 75%
    18:00 -3°C° 0 mm 2 mps 722 mmHg 75%
    19:00 -3°C° 0 mm 2 mps 723 mmHg 77%
    20:00 -3°C° 0 mm 2 mps 723 mmHg 79%
    21:00 -3°C° 0 mm 2 mps 723 mmHg 80%
    22:00 -4°C° 0.1 mm 2 mps 724 mmHg 82%
    23:00 -4°C° 0.1 mm 2 mps 724 mmHg 83%

    22 January, Tuesday

    Time Temperature Precipitation Wind Pressure Humidity
    00:00 -5°C° 0.1 mm 2 mps 724 mmHg 85%
    01:00 -5°C° 0.1 mm 2 mps 725 mmHg 86%
    02:00 -5°C° 0.1 mm 2 mps 725 mmHg 86%
    03:00 -5°C° 0.1 mm 2 mps 726 mmHg 87%
    04:00 -6°C° 0.1 mm 2 mps 726 mmHg 88%
    05:00 -4°C° 0.1 mm 1 mps 726 mmHg 88%
    06:00 -4°C° 0.1 mm 1 mps 726 mmHg 88%
    07:00 -4°C° 0.1 mm 1 mps 727 mmHg 88%
    08:00 -4°C° 0.1 mm 1 mps 727 mmHg 88%
    09:00 -6°C° 0.1 mm 1 mps 727 mmHg 88%
    10:00 -4°C° 0 mm 1 mps 727 mmHg 87%
    11:00 -4°C° 0 mm 0 mps 727 mmHg 85%
    12:00 -3°C° 0 mm 0 mps 727 mmHg 84%
    13:00 -3°C° 0 mm 0 mps 726 mmHg 86%
    14:00 -3°C° 0 mm 0 mps 726 mmHg 88%
    15:00 -2°C° 0 mm 1 mps 726 mmHg 90%
    16:00 -4°C° 0 mm 1 mps 726 mmHg 92%
    17:00 -6°C° 0 mm 0 mps 725 mmHg 94%
    18:00 -8°C° 0 mm 0 mps 725 mmHg 96%
    19:00 -8°C° 0 mm 1 mps 725 mmHg 94%
    20:00 -9°C° 0 mm 1 mps 725 mmHg 92%
    21:00 -9°C° 0 mm 1 mps 725 mmHg 90%
    22:00 -9°C° 0 mm 1 mps 725 mmHg 88%
    23:00 -10°C° 0 mm 2 mps 725 mmHg 86%

    23 January, Wednesday

    Time Temperature Precipitation Wind Pressure Humidity
    00:00 -12°C° 0 mm 2 mps 725 mmHg 84%
    01:00 -12°C° 0 mm 2 mps 725 mmHg 84%
    02:00 -12°C° 0 mm 2 mps 725 mmHg 83%
    03:00 -12°C° 0 mm 2 mps 725 mmHg 82%
    04:00 -12°C° 0 mm 2 mps 725 mmHg 81%
    05:00 -12°C° 0 mm 2 mps 725 mmHg 81%
    06:00 -12°C° 0 mm 2 mps 725 mmHg 80%
    07:00 -12°C° 0 mm 2 mps 725 mmHg 80%
    08:00 -12°C° 0 mm 2 mps 725 mmHg 79%
    09:00 -12°C° 0 mm 2 mps 725 mmHg 79%
    10:00 -8°C° 0 mm 1 mps 725 mmHg 78%
    11:00 -6°C° 0 mm 1 mps 725 mmHg 77%
    12:00 -4°C° 0 mm 0 mps 725 mmHg 77%
    13:00 -4°C° 0 mm 0 mps 725 mmHg 80%
    14:00 -4°C° 0 mm 0 mps 725 mmHg 82%
    15:00 -5°C° 0 mm 0 mps 725 mmHg 85%
    16:00 -6°C° 0 mm 0 mps 725 mmHg 86%
    17:00 -8°C° 0 mm 0 mps 725 mmHg 86%
    18:00 -10°C° 0 mm 0 mps 725 mmHg 86%
    19:00 -10°C° 0 mm 1 mps 725 mmHg 85%
    20:00 -10°C° 0 mm 1 mps 726 mmHg 85%
    21:00 -10°C° 0 mm 1 mps 726 mmHg 84%
    22:00 -10°C° 0 mm 1 mps 726 mmHg 83%
    23:00 -10°C° 0 mm 1 mps 726 mmHg 83%

    24 January, Thursday

    Time Temperature Precipitation Wind Pressure Humidity
    00:00 -10°C° 0 mm 1 mps 726 mmHg 83%
    01:00 -10°C° 0 mm 1 mps 726 mmHg 82%
    02:00 -10°C° 0 mm 1 mps 726 mmHg 82%
    03:00 -10°C° 0 mm 1 mps 727 mmHg 82%
    04:00 -9°C° 0 mm 1 mps 727 mmHg 82%
    05:00 -9°C° 0 mm 1 mps 727 mmHg 82%
    06:00 -9°C° 0 mm 1 mps 727 mmHg 82%
    07:00 -9°C° 0 mm 1 mps 727 mmHg 83%
    08:00 -9°C° 0 mm 1 mps 728 mmHg 83%
    09:00 -9°C° 0 mm 0 mps 728 mmHg 83%
    10:00 -7°C° 0 mm 0 mps 728 mmHg 82%
    11:00 -6°C° 0 mm 0 mps 728 mmHg 81%
    12:00 -5°C° 0 mm 0 mps 728 mmHg 80%
    13:00 -5°C° 0 mm 0 mps 728 mmHg 83%
    14:00 -4°C° 0 mm 1 mps 728 mmHg 85%
    15:00 -4°C° 0 mm 1 mps 728 mmHg 88%
    16:00 -6°C° 0 mm 1 mps 728 mmHg 89%
    17:00 -7°C° 0 mm 1 mps 728 mmHg 89%
    18:00 -8°C° 0 mm 0 mps 727 mmHg 90%
    19:00 -8°C° 0 mm 1 mps 727 mmHg 89%
    20:00 -8°C° 0 mm 1 mps 727 mmHg 88%
    21:00 -7°C° 0 mm 1 mps 727 mmHg 86%
    22:00 -7°C° 0 mm 1 mps 727 mmHg 86%
    23:00 -7°C° 0 mm 1 mps 727 mmHg 85%
    Show more